TimeCDT,TemperatureF,Dew PointF,Humidity,Sea Level PressureIn,VisibilityMPH,Wind Direction,Wind SpeedMPH,Gust SpeedMPH,PrecipitationIn,Events,Conditions,WindDirDegrees,DateUTC
12:33 AM,64.4,64.4,100,29.98,10.0,SE,12.7,-,N/A,,Overcast,130,2012-10-13 05:33:00
12:43 AM,64.4,64.4,100,29.98,10.0,SE,11.5,-,N/A,,Mostly Cloudy,130,2012-10-13 05:43:00
12:55 AM,64.6,64.6,100,29.97,10.0,SE,11.5,-,N/A,,Mostly Cloudy,130,2012-10-13 05:55:00
1:15 AM,64.4,64.4,100,29.96,10.0,SE,11.5,-,N/A,,Overcast,140,2012-10-13 06:15:00
1:48 AM,64.4,64.4,100,29.95,10.0,SSE,11.5,-,N/A,,Scattered Clouds,150,2012-10-13 06:48:00
1:55 AM,64.4,64.4,100,29.95,10.0,SSE,12.7,-,N/A,,Mostly Cloudy,150,2012-10-13 06:55:00
2:23 AM,64.4,64.4,100,29.94,10.0,SE,12.7,-,N/A,,Scattered Clouds,140,2012-10-13 07:23:00
2:55 AM,64.9,64.9,100,29.93,10.0,SSE,12.7,-,N/A,,Scattered Clouds,150,2012-10-13 07:55:00
3:55 AM,67.6,67.6,100,29.91,10.0,South,24.2,31.1,N/A,,Mostly Cloudy,170,2012-10-13 08:55:00
4:55 AM,68.0,68.0,100,29.90,10.0,South,20.7,26.5,N/A,,Overcast,170,2012-10-13 09:55:00
5:55 AM,68.2,68.2,100,29.89,10.0,South,18.4,-,N/A,,Mostly Cloudy,170,2012-10-13 10:55:00
6:55 AM,67.8,67.8,100,29.91,10.0,South,15.0,-,N/A,,Mostly Cloudy,190,2012-10-13 11:55:00
7:03 AM,68.0,68.0,100,29.90,10.0,South,13.8,-,N/A,Rain,Light Rain,170,2012-10-13 12:03:00
7:12 AM,68.0,68.0,100,29.90,10.0,South,12.7,-,N/A,,Mostly Cloudy,180,2012-10-13 12:12:00
7:14 AM,68.0,68.0,100,29.90,10.0,South,13.8,-,N/A,,Light Drizzle,180,2012-10-13 12:14:00
7:22 AM,68.0,68.0,100,29.89,5.0,South,16.1,-,N/A,Rain,Light Rain,170,2012-10-13 12:22:00
7:25 AM,68.0,68.0,100,29.88,5.0,South,13.8,-,N/A,Rain-Thunderstorm,Light Rain,180,2012-10-13 12:25:00
7:26 AM,68.0,68.0,100,29.88,5.0,South,13.8,-,N/A,Rain-Thunderstorm,Light Thunderstorms and Rain,180,2012-10-13 12:26:00
7:28 AM,68.0,68.0,100,29.88,5.0,South,13.8,-,N/A,Rain-Thunderstorm,Light Thunderstorms and Rain,170,2012-10-13 12:28:00
7:30 AM,68.0,68.0,100,29.88,4.0,South,15.0,-,N/A,Rain-Thunderstorm,Light Thunderstorms and Rain,170,2012-10-13 12:30:00
7:35 AM,68.0,68.0,100,29.88,3.0,South,17.3,23.0,N/A,Rain-Thunderstorm,Light Thunderstorms and Rain,170,2012-10-13 12:35:00
7:45 AM,68.0,68.0,100,29.88,8.0,South,13.8,-,N/A,Thunderstorm,Thunderstorm,180,2012-10-13 12:45:00
8:00 AM,68.0,68.0,100,29.89,6.0,South,15.0,-,N/A,Rain,Light Rain,180,2012-10-13 13:00:00
8:01 AM,68.0,68.0,100,29.89,5.0,South,16.1,-,N/A,Rain-Thunderstorm,Light Rain,170,2012-10-13 13:01:00
8:02 AM,68.0,68.0,100,29.89,4.0,South,16.1,-,N/A,Rain-Thunderstorm,Light Rain,170,2012-10-13 13:02:00
8:03 AM,68.0,68.0,100,29.89,3.0,South,16.1,-,N/A,Rain-Thunderstorm,Light Thunderstorms and Rain,170,2012-10-13 13:03:00
8:04 AM,68.0,68.0,100,29.89,2.5,South,17.3,-,N/A,Rain-Thunderstorm,Light Thunderstorms and Rain,180,2012-10-13 13:04:00
8:06 AM,68.0,68.0,100,29.89,2.0,South,18.4,-,N/A,Rain-Thunderstorm,Heavy Thunderstorms and Rain,170,2012-10-13 13:06:00
8:10 AM,68.0,68.0,100,29.88,2.0,South,17.3,-,N/A,Rain-Thunderstorm,Heavy Thunderstorms and Rain,180,2012-10-13 13:10:00
8:13 AM,68.0,68.0,100,29.88,2.5,South,16.1,-,N/A,Rain-Thunderstorm,Thunderstorms and Rain,180,2012-10-13 13:13:00
8:14 AM,68.0,68.0,100,29.88,2.5,South,15.0,-,N/A,Rain-Thunderstorm,Light Thunderstorms and Rain,180,2012-10-13 13:14:00
8:15 AM,68.0,68.0,100,29.88,3.0,South,16.1,-,N/A,Rain-Thunderstorm,Thunderstorms and Rain,180,2012-10-13 13:15:00
8:19 AM,68.0,68.0,100,29.88,4.0,South,13.8,-,N/A,Rain-Thunderstorm,Light Thunderstorms and Rain,190,2012-10-13 13:19:00
8:26 AM,68.0,68.0,100,29.88,7.0,South,16.1,-,N/A,Rain-Thunderstorm,Light Rain,180,2012-10-13 13:26:00
8:31 AM,68.0,68.0,100,29.88,5.0,South,16.1,-,N/A,Rain-Thunderstorm,Light Rain,180,2012-10-13 13:31:00
8:36 AM,68.0,68.0,100,29.88,6.0,South,18.4,-,N/A,Rain,Light Rain,180,2012-10-13 13:36:00
8:39 AM,68.0,68.0,100,29.87,9.0,South,18.4,-,N/A,,Overcast,180,2012-10-13 13:39:00
8:55 AM,67.3,67.3,100,29.87,9.0,South,16.1,-,0.17,,Overcast,180,2012-10-13 13:55:00
9:09 AM,68.0,68.0,100,29.86,7.0,South,17.3,-,N/A,,Overcast,170,2012-10-13 14:09:00
9:13 AM,68.0,68.0,100,29.86,8.0,South,16.1,-,N/A,Thunderstorm,Overcast,170,2012-10-13 14:13:00
9:26 AM,68.0,68.0,100,29.86,9.0,South,13.8,-,N/A,Thunderstorm,Overcast,170,2012-10-13 14:26:00
9:40 AM,68.0,68.0,100,29.85,9.0,SSE,12.7,-,N/A,,Overcast,160,2012-10-13 14:40:00
9:48 AM,68.0,68.0,100,29.84,9.0,SSE,12.7,-,N/A,,Overcast,160,2012-10-13 14:48:00
9:55 AM,68.0,68.0,100,29.84,9.0,SSE,13.8,-,0.03,,Overcast,150,2012-10-13 14:55:00
10:06 AM,68.0,68.0,100,29.82,9.0,SSE,15.0,-,N/A,,Overcast,160,2012-10-13 15:06:00
10:28 AM,68.0,68.0,100,29.83,10.0,South,17.3,-,N/A,,Overcast,170,2012-10-13 15:28:00
10:55 AM,69.3,69.3,100,29.83,10.0,South,18.4,26.5,N/A,,Overcast,170,2012-10-13 15:55:00
11:04 AM,69.8,69.8,100,29.82,10.0,SSE,17.3,25.3,N/A,,Overcast,160,2012-10-13 16:04:00
11:16 AM,69.8,69.8,100,29.81,10.0,South,13.8,-,N/A,,Overcast,170,2012-10-13 16:16:00
11:55 AM,69.8,69.8,100,29.80,10.0,SSE,19.6,26.5,N/A,,Overcast,160,2012-10-13 16:55:00
12:38 PM,69.8,69.8,100,29.78,10.0,SSE,16.1,-,N/A,,Overcast,160,2012-10-13 17:38:00
12:40 PM,69.8,69.8,100,29.78,10.0,South,15.0,-,N/A,Rain,Light Rain,170,2012-10-13 17:40:00
12:47 PM,69.8,69.8,100,29.77,10.0,South,16.1,-,N/A,Rain,Light Rain,170,2012-10-13 17:47:00
1:00 PM,69.8,69.8,100,29.77,10.0,South,17.3,-,N/A,Rain,Light Rain,170,2012-10-13 18:00:00
1:17 PM,69.8,69.8,100,29.75,10.0,South,16.1,-,N/A,,Overcast,180,2012-10-13 18:17:00
1:28 PM,69.8,69.8,100,29.74,10.0,South,17.3,-,N/A,Rain,Light Rain,180,2012-10-13 18:28:00
1:40 PM,71.6,71.6,100,29.72,10.0,South,15.0,21.9,N/A,,Overcast,180,2012-10-13 18:40:00
1:49 PM,71.6,71.6,100,29.73,10.0,South,18.4,-,N/A,,Overcast,180,2012-10-13 18:49:00
1:55 PM,71.4,71.2,99,29.73,10.0,South,17.3,-,0.01,,Overcast,180,2012-10-13 18:55:00
2:18 PM,71.6,71.6,100,29.72,10.0,South,19.6,-,N/A,,Overcast,170,2012-10-13 19:18:00
2:55 PM,72.5,72.5,100,29.70,10.0,South,18.4,-,N/A,,Overcast,180,2012-10-13 19:55:00
3:20 PM,73.4,73.4,100,29.67,10.0,South,16.1,24.2,N/A,,Light Drizzle,170,2012-10-13 20:20:00
3:31 PM,73.4,73.4,100,29.66,10.0,SSE,20.7,25.3,N/A,,Overcast,160,2012-10-13 20:31:00
4:00 PM,73.4,73.4,100,29.65,10.0,South,18.4,-,N/A,,Mostly Cloudy,170,2012-10-13 21:00:00
4:02 PM,73.4,73.4,100,29.65,10.0,South,19.6,-,N/A,,Mostly Cloudy,170,2012-10-13 21:02:00
4:14 PM,73.4,71.6,94,29.65,10.0,South,17.3,25.3,N/A,Rain,Light Rain,180,2012-10-13 21:14:00
4:17 PM,73.4,73.4,100,29.65,6.0,South,19.6,25.3,N/A,Rain-Thunderstorm,Light Thunderstorms and Rain,190,2012-10-13 21:17:00
4:21 PM,73.4,73.4,100,29.66,2.5,South,23.0,29.9,N/A,Rain-Thunderstorm,Thunderstorms and Rain,180,2012-10-13 21:21:00
4:23 PM,73.4,73.4,100,29.65,1.8,South,27.6,36.8,N/A,Rain-Thunderstorm,Heavy Thunderstorms and Rain,180,2012-10-13 21:23:00
4:27 PM,69.8,68.0,94,29.64,1.2,South,31.1,39.1,N/A,Rain-Thunderstorm,Thunderstorms and Rain,170,2012-10-13 21:27:00
4:31 PM,68.0,64.4,88,29.64,1.5,South,20.7,39.1,N/A,Rain-Thunderstorm,Light Thunderstorms and Rain,190,2012-10-13 21:31:00
4:42 PM,66.2,64.4,94,29.65,1.0,South,19.6,-,N/A,Rain-Thunderstorm,Heavy Thunderstorms and Rain,190,2012-10-13 21:42:00
4:43 PM,66.2,64.4,94,29.65,0.8,SSW,19.6,26.5,N/A,Rain-Thunderstorm,Heavy Thunderstorms and Rain,210,2012-10-13 21:43:00
4:44 PM,64.4,64.4,100,29.65,0.5,SW,19.6,26.5,N/A,Fog-Rain-Thunderstorm,Heavy Thunderstorms and Rain,220,2012-10-13 21:44:00
4:45 PM,64.4,64.4,100,29.66,0.2,SSW,27.6,52.9,N/A,Fog-Rain-Thunderstorm,Heavy Thunderstorms and Rain,210,2012-10-13 21:45:00
4:46 PM,64.4,62.6,94,29.65,0.2,SSW,23.0,52.9,N/A,Fog-Rain-Thunderstorm,Heavy Thunderstorms and Rain,210,2012-10-13 21:46:00
4:48 PM,64.4,62.6,94,29.64,0.2,SSE,6.9,52.9,N/A,Fog-Rain-Thunderstorm,Heavy Thunderstorms and Rain,160,2012-10-13 21:48:00
4:55 PM,64.9,61.9,90,29.64,0.2,SSE,15.0,52.9,0.99,Fog-Rain-Thunderstorm,Heavy Thunderstorms and Rain,160,2012-10-13 21:55:00
5:01 PM,66.2,66.2,100,29.65,1.0,SSW,16.1,27.6,N/A,Rain-Thunderstorm,Light Thunderstorms and Rain,200,2012-10-13 22:01:00
5:02 PM,66.2,66.2,100,29.64,1.0,SSW,16.1,26.5,N/A,Rain-Thunderstorm,Light Thunderstorms and Rain,210,2012-10-13 22:02:00
5:03 PM,66.2,66.2,100,29.64,1.5,SSW,16.1,26.5,N/A,Rain-Thunderstorm,Light Thunderstorms and Rain,210,2012-10-13 22:03:00
5:04 PM,66.2,66.2,100,29.64,2.5,SSW,13.8,-,N/A,Rain-Thunderstorm,Light Thunderstorms and Rain,200,2012-10-13 22:04:00
5:05 PM,68.0,68.0,100,29.64,5.0,South,12.7,-,N/A,Rain-Thunderstorm,Light Thunderstorms and Rain,180,2012-10-13 22:05:00
5:07 PM,68.0,68.0,100,29.63,9.0,South,10.4,-,N/A,Thunderstorm,Thunderstorm,170,2012-10-13 22:07:00
5:09 PM,68.0,68.0,100,29.63,10.0,SSE,18.4,21.9,N/A,,Mostly Cloudy,160,2012-10-13 22:09:00
5:33 PM,69.8,69.8,100,29.60,10.0,SE,16.1,-,N/A,,Mostly Cloudy,140,2012-10-13 22:33:00
5:55 PM,71.2,71.2,100,29.61,10.0,SSE,17.3,27.6,0.23,,Overcast,160,2012-10-13 22:55:00
6:55 PM,72.1,72.1,100,29.58,10.0,South,18.4,-,N/A,,Mostly Cloudy,170,2012-10-13 23:55:00
7:18 PM,71.6,71.6,100,29.60,10.0,South,15.0,-,N/A,,Scattered Clouds,170,2012-10-14 00:18:00
7:55 PM,68.9,66.2,91,29.61,10.0,South,11.5,-,N/A,,Clear,180,2012-10-14 00:55:00
8:55 PM,65.7,64.0,94,29.64,10.0,SSE,12.7,-,N/A,,Clear,160,2012-10-14 01:55:00
9:55 PM,61.9,61.9,100,29.62,10.0,South,6.9,-,N/A,,Clear,180,2012-10-14 02:55:00
10:55 PM,62.6,57.0,82,29.64,10.0,SW,10.4,-,N/A,,Clear,220,2012-10-14 03:55:00
11:55 PM,60.4,51.1,71,29.63,10.0,WSW,5.8,-,N/A,,Clear,240,2012-10-14 04:55:00